Regional Weather Roundup
Issued by NWS

Home | Current Version | Previous Version | Text Only | Print | Product List | Glossary Off
Versions: 1 2 3 4 5 6 7 8 9 10 11 12 13 14 15 16 17 18 19 20 21 22 23 24 25 26 27 28 29 30 31 32 33 34 35 36 37 38 39 40 41 42 43 44 45 46 47 48 49 50

459
ASUS43 KFSD 200102
RWRSD

WEATHER ROUNDUP FOR SOUTH DAKOTA
NATIONAL WEATHER SERVICE SIOUX FALLS SD
800 PM CDT SAT AUG 19 2017

NOTE: "FAIR" INDICATES FEW OR NO CLOUDS BELOW 12,000 FEET WITH NO
SIGNIFICANT WEATHER AND/OR OBSTRUCTIONS TO VISIBILITY.


SDZ001>005-009-010-012>017-200200-
NORTHWEST AND NORTH CENTRAL SOUTH DAKOTA

CITY           SKY/WX    TMP DP  RH WIND       PRES   REMARKS
BUFFALO          N/A     81  40  23 N18       29.82S
FAITH            N/A     84  41  21 N13       29.83R
MOBRIDGE       MOCLDY    83  73  72 MISG      29.74R
$$

SDZ012>016-024>037-041>051-057-063-072>074-200200-
SOUTHWEST AND SOUTH CENTRAL SOUTH DAKOTA

CITY           SKY/WX    TMP DP  RH WIND       PRES   REMARKS
RAPID CTY ARPT CLEAR     83  41  22 N14       29.86R
PIERRE         CLEAR     83  64  52 SE9       29.73S
CUSTER         PTCLDY    77  43  29 E13       30.03S
ELLSWORTH AFB  CLEAR     86  40  19 N20       29.86R
PHILIP         CLEAR     93  41  16 N5        29.74S
PINE RIDGE     CLEAR     86  54  33 E6        29.84F
SPEARFISH      FAIR      79  39  24 N6        29.95S
WINNER         FAIR      84  71  65 E12       29.76S
$$

SDZ004>011-016>023-039-040-200200-
NORTHEAST SOUTH DAKOTA

CITY           SKY/WX    TMP DP  RH WIND       PRES   REMARKS
ABERDEEN       CLEAR     74  65  73 S8        29.76S
WATERTOWN      CLEAR     72  63  73 S12       29.82R
BROOKINGS      CLEAR     73  64  73 S8        29.84F
SISSETON         N/A     73  65  75 SE8       29.77S
$$

SDZ017-020-022-023-036>040-048>070-200200-
SOUTHEAST SOUTH DAKOTA

CITY           SKY/WX    TMP DP  RH WIND       PRES   REMARKS
SIOUX FALLS    PTCLDY    77  66  68 S12       29.84S
HURON          CLEAR     77  64  64 SE8       29.78S
CHAMBERLAIN    CLEAR     81  71  72 E10       29.77R
MITCHELL       CLEAR     79  65  62 SE12      29.79F
$$

ABBREVIATIONS USED IN REMARKS
   TC - TEMPERATURE IN CELSIUS
  WCI - WIND CHILL INDEX
   HX - HEAT INDEX
  VSB - VISIBILITY





USA.gov is the U.S. government's official web portal to all federal, state and local government web resources and services.